{"data":{"norad_id":65739,"epoch":"2026-09-20T09:46:42.264768Z","epoch_age_seconds":116719,"freshness":"FRESH","line1":"1 65739U 25216F   26263.40743362  .00018285  00000+0  55079-3 0  9996","line2":"2 65739  53.1585 146.4707 0000357  58.8725 301.2313 15.34409996 56350","mean_motion":15.34409996,"eccentricity":3.57e-5,"inclination_deg":53.1585,"raan_deg":146.4707,"arg_perigee_deg":58.8725,"mean_anomaly_deg":301.2313,"bstar":0.00055079,"rev_number":5635,"period_min":93.84714670485,"perigee_km":462.42931321391,"apogee_km":462.91774708576,"semimajor_km":6840.8105301498,"source":"CELESTRAK","updated_at":"2026-09-21T09:00:35.692233Z"}}